Overview Statistics Trail Chart Weather Telemetry Raw packets
 

This is the latest recevied weather packets stored in our database for station/object HB9FHL-13. If no packets are shown the sender has not sent any weather packets the latest 10 day(s).

<< 1 2 3 4 5 6 7 >>
Time Temp. Humidity Pressure Rain* Wind** Luminosity Snow
1788661565 17.78° C - 1031.8 hPa 0 mm - - -
1788661264 17.78° C - 1025.6 hPa 0 mm - - -
1788660964 17.22° C - 1027.1 hPa 0 mm - - -
1788660663 17.22° C - 1026.7 hPa 0 mm - - -
1788660363 17.78° C - 1026.2 hPa 0 mm - - -
1788660062 17.78° C - 1030.3 hPa 0 mm - - -
1788659762 17.78° C - 1026.6 hPa 0 mm - - -
1788659461 17.78° C - 1025.3 hPa 0 mm - - -
1788659159 17.78° C - 1026.7 hPa 0 mm - - -
1788658857 17.22° C - 1024.7 hPa 0 mm - - -
1788658591 18.33° C - 1026.6 hPa 0 mm - - -
1788658255 18.89° C - 1029.6 hPa 0 mm - - -
1788657955 18.33° C - 1022.8 hPa 0 mm - - -
1788657654 18.89° C - 1027.7 hPa 0 mm - - -
1788657354 18.33° C - 1031.3 hPa 0 mm - - -
1788657053 18.33° C - 1027.3 hPa 0 mm - - -
1788656753 18.33° C - 1026 hPa 0 mm - - -
1788656452 17.78° C - 1028.3 hPa 0 mm - - -
1788656271 17.78° C - 1033.3 hPa 0 mm - - -
1788656151 17.78° C - 1033.3 hPa 0 mm - - -
1788655851 18.33° C - 1025.2 hPa 0 mm - - -
1788655552 18.89° C - 1028.2 hPa 0 mm - - -
1788655249 18.89° C - 1030.6 hPa 0 mm - - -
1788655021 18.33° C - 1027.6 hPa 0 mm - - -
1788654948 18.33° C - 1027.6 hPa 0 mm - - -

* Rain since midnight (hover to see other rain measurements)
** Current wind speed in m/s (hover to see current wind gust speed)